Location: Battery Park City
(40.7115°N, 74.0163°W)
Time: 22:14:36
(UTC+00:00)

ATLAS 2AS CENTAUR R/B - Pass Details

Date: 08 December 2019
Orbit: 927 x 1285 km, 63.7° (Epoch: 06 January)

Event Time Altitude Azimuth Distance (km) Brightness Sun altitude
Rises 21:44:54 0° 237° (WSW) 4,186 8.6 -3.6°
Reaches altitude 10° 21:47:49 10° 243° (WSW) 3,248 7.3 -4.1°
Maximum altitude 21:55:21 44° 314° (NW) 1,704 4.0 -5.3°
Drops below altitude 10° 22:02:57 10° 26° (NNE) 3,269 4.8 -6.6°
Enters shadow 22:05:39 - 32° (NNE) 4,128 5.3 -7.1°
